Location: Aix-en-Ergny
(50.5839°N, 1.9996°E)
Time: 00:26:28
(UTC+00:00)

COSMOS 2455 - Pass Details

Date: 23 October 2019
Orbit: 901 x 909 km, 67.1° (Epoch: 14 November)

Event Time Altitude Azimuth Distance (km) Brightness Sun altitude
Exits shadow 04:40:35 19° 307° (NW) 2,040 4.3 -17.5°
Maximum altitude 04:42:44 23° 336° (NNW) 1,860 4.3 -17.2°
Drops below altitude 10° 04:47:24 10° 27° (NNE) 2,604 5.6 -16.5°
Sets 04:50:31 0° 42° (NE) 3,547 6.6 -16.0°
